[[{"header":{"parameterUnit":"m.s-1","parameterCategory":1,"la1":30.2991,"la2":30.254,"lo1":-89.0895,"lo2":-89.0444,"dy":0.0017,"dx":0.0017,"nx":28,"ny":28,"refTime":"2025-04-09T21:00:00:Z","depth":0,"parameterNumber":2,"parameterNumberName":"U-component_of_WINDS"},"data":[0,0,0,0,0,0,0,0,0,0,0,0,0,0,0,0,0,0,0,0,0,0,0,0,0,0,0,0,0,0,0,0,0,0,0,0,0,0,0,0,0,0,0,0,0,0,0,0,0,0,0,0,0,0,0,0,0,0,3.6363,3.6363,0,3.6423,3.6423,3.6424,3.6424,3.6423,3.6422,3.6421,3.6484,3.6486,3.6489,0,0,0,0,0,0,0,0,0,0,0,0,0,3.6251,3.6253,3.6363,3.6363,3.6364,3.6422,3.6423,3.6424,3.6424,3.6423,3.6422,3.6421,3.6483,3.6486,3.6489,0,0,0,0,0,0,0,0,0,0,0,0,0,3.6304,3.6254,3.6362,3.6371,3.6372,3.6422,3.6423,3.6424,3.6424,3.6423,3.6422,3.642,3.6482,3.6486,3.6489,3.6535,0,0,3.65,3.6502,0,0,0,0,0,0,0,0,3.6301,3.6308,3.6369,3.637,3.6372,3.6414,3.6407,3.6461,3.6424,3.6404,3.6421,3.642,3.6462,3.6467,3.6481,3.6538,3.6541,3.6501,3.6503,3.6504,3.6505,0,0,0,0,0,0,0,3.6297,3.6306,3.6386,3.637,3.6372,3.6373,3.6379,3.6417,3.6439,3.6406,3.6406,3.6413,3.6462,3.6477,3.6482,3.6542,3.65,3.6504,3.6506,3.6507,3.6642,3.6643,0,0,0,0,0,0,3.6292,3.6302,3.6384,3.6388,3.6333,3.6376,3.6383,3.6402,3.6439,3.6443,3.6414,3.6413,3.6472,3.6478,3.6485,3.6542,3.6504,3.6508,3.651,3.6641,3.6642,3.6644,0,0,0,0,0,0,3.6289,3.6299,3.6382,3.6345,3.6356,3.6379,3.6401,3.6404,3.6419,3.6445,3.6449,3.6425,3.6471,3.6479,3.6523,3.6544,3.6509,3.6513,3.6639,3.6641,3.6643,3.6656,0,0,0,0,0,0,3.6286,3.6298,3.6315,3.6346,3.6358,3.6418,3.6402,3.6406,3.6425,3.6424,3.6456,3.646,3.6471,3.6518,3.6527,3.6548,3.6515,3.6637,3.664,3.6642,3.6653,3.6658,3.6662,0,0,0,0,0,3.6282,3.6316,3.6316,3.6325,3.6379,3.6419,3.6427,3.6437,3.6426,3.6444,3.6461,3.6459,3.654,3.6522,3.6532,3.6555,3.6636,3.6639,3.6642,3.6651,3.6657,3.6662,0,0,0,0,0,0,3.6286,3.632,3.632,3.6364,3.6389,3.6419,3.6442,3.6443,3.6471,3.6469,3.6482,3.649,3.6533,3.6549,3.6528,3.6603,3.6587,3.6592,3.6591,3.6596,3.66,3.6595,3.6518,0,0,0,0,0,3.6292,3.6322,3.635,3.6386,3.6399,3.6418,3.6436,3.6443,3.6469,3.6479,3.65,3.6526,3.6558,3.6578,3.6608,3.6656,3.6664,3.6677,3.6682,3.6685,3.6689,3.6717,3.6724,3.6654,3.6654,3.6654,0,0,3.6305,3.6327,3.6345,3.6388,3.6408,3.6439,3.6427,3.646,3.6483,3.6485,3.6527,3.6543,3.6573,3.662,3.6641,3.6634,3.671,3.6689,3.6691,3.6694,3.6721,3.6728,3.6734,3.6657,3.6656,3.6656,0,0,3.6344,3.6364,3.6397,3.6417,3.6448,3.6461,3.6469,3.65,3.6511,3.6554,3.6556,3.6585,3.6638,3.666,3.6678,3.6729,3.6729,3.6739,3.676,3.6788,3.6793,3.6798,3.6817,3.6823,3.6743,3.6743,3.6743,0,3.6356,3.6402,3.6414,3.6447,3.6467,3.647,3.6505,3.6525,3.6564,3.6578,3.6569,3.6638,3.6659,3.6711,3.6724,3.6738,3.6749,3.6734,3.6791,3.6796,3.6801,3.6819,3.6826,3.6744,3.6744,3.6744,3.6744,0,3.6416,3.6448,3.6471,3.6509,3.6532,3.6565,3.6584,3.6605,3.6611,3.6625,3.667,3.6696,3.6732,3.6745,3.6751,3.6799,3.6794,3.6788,3.6772,3.6808,3.6826,3.6832,3.6746,3.6745,3.6745,3.6745,0,0,3.6456,3.6502,3.6511,3.6529,3.6564,3.6589,3.6625,3.666,3.6679,3.6707,3.6737,3.6784,3.678,3.6801,3.6809,3.6833,3.6873,3.6825,3.6826,3.6833,3.6929,3.6932,3.694,3.6874,3.6875,3.6876,3.6927,0,3.6499,3.656,3.6573,3.6627,3.6658,3.6663,3.6694,3.672,3.6735,3.6764,3.6782,3.6815,3.6807,3.682,3.6844,3.6863,3.6892,3.686,3.6903,3.6904,3.6894,3.6949,3.6952,3.6998,3.6933,3.6935,3.6935,0,3.6556,3.6586,3.6642,3.6675,3.6689,3.6716,3.6751,3.6778,3.6809,3.6819,3.6843,3.685,3.6888,3.6872,3.6926,3.6903,3.6922,3.6935,3.6937,3.694,3.6921,3.6954,3.7013,3.702,3.6946,3.6945,3.6944,0,3.6581,3.6635,3.6676,3.6691,3.6731,3.675,3.6768,3.6797,3.6818,3.6849,3.6863,3.6899,3.6918,3.6946,3.6962,3.6949,3.7015,3.7,3.7025,3.7025,3.7037,3.7036,3.71,3.7051,3.7051,3.7051,3.7051,0,3.6626,3.6661,3.6687,3.6712,3.6752,3.6768,3.6807,3.6825,3.6851,3.6881,3.6889,3.6917,3.6937,3.6969,3.6982,3.7025,3.7034,3.7044,3.7047,3.7042,3.7041,3.7054,3.7051,3.7053,3.7052,3.7052,3.7051,0,3.6659,3.6678,3.6724,3.6758,3.6768,3.6795,3.6826,3.6851,3.6868,3.6906,3.6915,3.6942,3.6979,3.6999,3.7046,3.7056,3.7104,3.7106,3.7093,3.7094,3.7118,3.7116,3.7192,3.7203,3.7147,3.7148,3.7148,0,3.6686,3.6713,3.6751,3.6771,3.6789,3.6822,3.6844,3.6862,3.6885,3.6923,3.6944,3.6983,3.7014,3.7074,3.7098,3.7135,3.7137,3.7161,3.7142,3.7138,3.7137,3.7135,3.7138,3.7164,3.7165,3.7165,3.7165,0,3.6733,3.6742,3.6773,3.6808,3.6835,3.6863,3.6892,3.6908,3.6931,3.6957,3.6995,3.702,3.7069,3.7107,3.7146,3.7165,3.717,3.7172,3.7179,3.7175,3.7166,3.7171,3.7102,3.7169,3.7169,3.7169,3.7168,3.7168,3.6764,3.6789,3.6819,3.6855,3.6878,3.6905,3.6931,3.6952,3.6984,3.7025,3.7034,3.7075,3.7107,3.716,3.7181,3.7214,3.7209,3.722,3.7223,3.7225,3.7226,3.7162,3.7222,3.7222,3.7221,3.7221,3.7221,0,3.6811,3.6832,3.6864,3.6904,3.6932,3.6934,3.6967,3.699,3.7026,3.7056,3.7087,3.7132,3.717,3.7198,3.7237,3.7258,3.7261,3.7268,3.7266,3.7271,3.7229,3.7218,3.7265,3.7265,3.7265,3.7265,3.7265,3.7265,3.6839,3.6881,3.6894,3.6948,3.6969,3.7009,3.7027,3.7053,3.7077,3.7127,3.7158,3.7176,3.7206,3.7248,3.7283,3.729,3.7304,3.7311,3.7318,3.7278,3.7273,3.7269,3.7259,3.7314,3.7314,3.7357,3.7358,3.7358]},{"header":{"parameterUnit":"m.s-1","parameterCategory":1,"la1":30.2991,"la2":30.254,"lo1":-89.0895,"lo2":-89.0444,"dy":0.0017,"dx":0.0017,"nx":28,"ny":28,"refTime":"2025-04-09T21:00:00:Z","depth":0,"parameterNumber":3,"parameterNumberName":"V-component_of_WINDS"},"data":[0,0,0,0,0,0,0,0,0,0,0,0,0,0,0,0,0,0,0,0,0,0,0,0,0,0,0,0,0,0,0,0,0,0,0,0,0,0,0,0,0,0,0,0,0,0,0,0,0,0,0,0,0,0,0,0,0,0,-4.3643,-4.3643,0,-4.3671,-4.3672,-4.3672,-4.3685,-4.3685,-4.3685,-4.3685,-4.3712,-4.3713,-4.3713,0,0,0,0,0,0,0,0,0,0,0,0,0,-4.3599,-4.3599,-4.3643,-4.3643,-4.3644,-4.3671,-4.3672,-4.3672,-4.3685,-4.3685,-4.3685,-4.3685,-4.3712,-4.3713,-4.3713,0,0,0,0,0,0,0,0,0,0,0,0,0,-4.3622,-4.36,-4.3643,-4.3653,-4.3655,-4.3671,-4.3672,-4.3672,-4.3685,-4.3685,-4.3685,-4.3685,-4.3711,-4.3713,-4.3714,-4.3721,0,0,-4.3717,-4.3718,0,0,0,0,0,0,0,0,-4.362,-4.3623,-4.3651,-4.3653,-4.3654,-4.3675,-4.3666,-4.3689,-4.3685,-4.3673,-4.3685,-4.3685,-4.3699,-4.3702,-4.3707,-4.3723,-4.3724,-4.3717,-4.3718,-4.3718,-4.3719,0,0,0,0,0,0,0,-4.3619,-4.3622,-4.3654,-4.3652,-4.3653,-4.3656,-4.366,-4.3671,-4.3686,-4.3674,-4.3675,-4.3679,-4.37,-4.3706,-4.3708,-4.3724,-4.3717,-4.3718,-4.3719,-4.3719,-4.3749,-4.375,0,0,0,0,0,0,-4.3615,-4.3621,-4.3653,-4.3655,-4.3637,-4.3657,-4.3661,-4.3668,-4.3686,-4.3689,-4.3679,-4.3679,-4.3704,-4.3706,-4.3709,-4.372,-4.3718,-4.3719,-4.372,-4.3749,-4.3749,-4.375,0,0,0,0,0,0,-4.3614,-4.3618,-4.3652,-4.3638,-4.3643,-4.3658,-4.3666,-4.3669,-4.3674,-4.3689,-4.3692,-4.3682,-4.3704,-4.3707,-4.3719,-4.3721,-4.372,-4.3721,-4.3749,-4.3749,-4.3749,-4.3741,0,0,0,0,0,0,-4.3613,-4.3618,-4.3621,-4.3638,-4.3643,-4.3662,-4.3666,-4.3669,-4.3676,-4.3677,-4.3693,-4.3695,-4.3704,-4.3717,-4.372,-4.3722,-4.3722,-4.3749,-4.3749,-4.3749,-4.3741,-4.3741,-4.3741,0,0,0,0,0,-4.3612,-4.3617,-4.3621,-4.3625,-4.3648,-4.3662,-4.3665,-4.3675,-4.3677,-4.368,-4.369,-4.3695,-4.372,-4.3718,-4.3721,-4.3724,-4.3749,-4.3749,-4.3749,-4.3742,-4.3741,-4.3741,0,0,0,0,0,0,-4.3598,-4.3619,-4.3624,-4.3635,-4.3647,-4.3664,-4.3668,-4.3674,-4.3685,-4.3685,-4.3698,-4.3701,-4.3712,-4.3719,-4.3716,-4.3734,-4.3735,-4.3736,-4.3728,-4.3728,-4.3728,-4.3725,-4.3723,0,0,0,0,0,-4.3597,-4.3607,-4.3624,-4.3632,-4.3638,-4.3652,-4.3659,-4.3666,-4.3678,-4.3683,-4.3694,-4.3705,-4.3716,-4.3722,-4.3733,-4.3743,-4.3747,-4.3747,-4.3747,-4.3746,-4.3747,-4.3754,-4.3754,-4.375,-4.375,-4.375,0,0,-4.3593,-4.3606,-4.3611,-4.363,-4.364,-4.365,-4.3656,-4.3666,-4.3674,-4.3684,-4.3696,-4.3705,-4.3718,-4.3729,-4.3735,-4.3736,-4.3749,-4.3747,-4.3746,-4.3747,-4.3754,-4.3754,-4.3755,-4.3751,-4.3751,-4.3751,0,0,-4.3592,-4.3603,-4.3611,-4.3621,-4.3637,-4.3647,-4.3649,-4.3666,-4.3672,-4.3684,-4.3693,-4.3702,-4.372,-4.373,-4.3737,-4.3742,-4.3747,-4.3745,-4.3743,-4.375,-4.375,-4.3751,-4.3753,-4.3753,-4.3746,-4.3746,-4.3746,0,-4.3585,-4.3601,-4.3614,-4.3625,-4.3633,-4.3644,-4.3653,-4.3662,-4.368,-4.3685,-4.3687,-4.3711,-4.372,-4.3735,-4.3736,-4.3741,-4.3744,-4.3743,-4.3749,-4.375,-4.375,-4.3753,-4.3753,-4.3745,-4.3745,-4.3745,-4.3745,0,-4.3593,-4.3604,-4.3609,-4.3627,-4.3636,-4.3646,-4.366,-4.3668,-4.3675,-4.3684,-4.3697,-4.371,-4.3724,-4.3728,-4.3734,-4.3743,-4.3744,-4.3747,-4.3749,-4.375,-4.3752,-4.3753,-4.3745,-4.3745,-4.3745,-4.3745,0,0,-4.3582,-4.3609,-4.3611,-4.362,-4.3639,-4.3648,-4.3658,-4.3673,-4.3679,-4.3692,-4.3701,-4.3717,-4.3721,-4.3729,-4.3737,-4.3743,-4.3747,-4.3746,-4.3746,-4.3745,-4.3758,-4.3755,-4.3756,-4.3751,-4.3751,-4.3751,-4.3757,0,-4.3584,-4.3603,-4.3616,-4.3631,-4.3642,-4.3654,-4.3663,-4.3676,-4.3686,-4.3696,-4.3707,-4.3718,-4.3722,-4.3727,-4.3734,-4.3745,-4.3749,-4.3745,-4.3759,-4.3759,-4.3755,-4.3757,-4.3753,-4.3758,-4.3758,-4.3758,-4.3758,0,-4.3587,-4.3601,-4.3617,-4.3637,-4.3642,-4.365,-4.3665,-4.3675,-4.369,-4.3697,-4.3707,-4.3716,-4.3727,-4.3729,-4.3745,-4.3742,-4.3749,-4.3755,-4.3756,-4.3757,-4.3758,-4.3758,-4.376,-4.376,-4.3759,-4.3759,-4.3759,0,-4.3578,-4.3601,-4.3614,-4.3621,-4.3644,-4.3649,-4.3659,-4.3674,-4.3683,-4.3696,-4.3702,-4.3716,-4.3724,-4.3734,-4.3747,-4.3747,-4.3762,-4.3765,-4.3768,-4.3768,-4.377,-4.3769,-4.3772,-4.3775,-4.3775,-4.3775,-4.3775,0,-4.3578,-4.3588,-4.361,-4.3618,-4.3629,-4.3644,-4.3654,-4.3665,-4.3679,-4.3689,-4.37,-4.3709,-4.3725,-4.3737,-4.3746,-4.3759,-4.3762,-4.3768,-4.377,-4.3766,-4.3766,-4.377,-4.377,-4.3775,-4.3775,-4.3775,-4.3775,0,-4.3569,-4.3585,-4.36,-4.3621,-4.3627,-4.3634,-4.3652,-4.366,-4.3672,-4.3684,-4.3688,-4.3705,-4.3719,-4.3733,-4.3751,-4.3758,-4.377,-4.3774,-4.3765,-4.3767,-4.3769,-4.3769,-4.3775,-4.3777,-4.3778,-4.3778,-4.3778,0,-4.3568,-4.3576,-4.3599,-4.3607,-4.3617,-4.3629,-4.3639,-4.3655,-4.3664,-4.3683,-4.3688,-4.3704,-4.3716,-4.3738,-4.3752,-4.3766,-4.377,-4.3771,-4.3772,-4.3769,-4.377,-4.3769,-4.377,-4.3771,-4.3771,-4.377,-4.377,0,-4.3564,-4.3572,-4.3586,-4.3602,-4.3614,-4.3627,-4.3641,-4.3647,-4.3665,-4.3675,-4.369,-4.37,-4.372,-4.3735,-4.3751,-4.3761,-4.3769,-4.377,-4.3772,-4.3768,-4.3763,-4.3766,-4.3764,-4.377,-4.377,-4.377,-4.377,-4.377,-4.3559,-4.3567,-4.3585,-4.36,-4.3613,-4.3626,-4.3635,-4.3648,-4.3661,-4.3679,-4.3688,-4.3703,-4.3719,-4.3742,-4.3752,-4.3764,-4.3766,-4.3768,-4.3769,-4.3769,-4.3768,-4.3762,-4.3767,-4.3767,-4.3767,-4.3767,-4.3767,0,-4.3556,-4.3569,-4.3583,-4.3603,-4.3615,-4.3623,-4.3639,-4.3648,-4.3662,-4.3677,-4.369,-4.3708,-4.3723,-4.3739,-4.3755,-4.3761,-4.3765,-4.3765,-4.3764,-4.3766,-4.3766,-4.3763,-4.3761,-4.3761,-4.3761,-4.3761,-4.3761,-4.3761,-4.3556,-4.357,-4.358,-4.3601,-4.3614,-4.363,-4.3638,-4.3651,-4.3663,-4.3683,-4.3696,-4.3707,-4.3722,-4.374,-4.3754,-4.3758,-4.3764,-4.3762,-4.3767,-4.3766,-4.3766,-4.3767,-4.3764,-4.3763,-4.3763,-4.3767,-4.3767,-4.3767]}]]